LRBM Weather Reports


time (UTC)temp
C
wind
direction
speed
KPH
gust
KPH
rain 1hr
cm
rain 24hr
cm
rain mn
cm
humidity
%
barometer
mb
20260503224835 7 1.6 0.0 0.00 0.00 0.00 71 1019.0
20260503223347 7 1.6 0.0 0.00 0.00 0.00 71 1019.0
20260503221852 10 50 4.8 0.0 0.00 0.00 0.00 67 1019.0
20260503220417 10 50 4.8 0.0 0.00 0.00 0.00 67 1019.0
20260503214842 10 50 8.0 0.0 0.00 0.00 0.00 67 1019.0
20260503213335 10 50 8.0 0.0 0.00 0.00 0.00 67 1019.0
20260503211836 10 3.2 0.0 0.00 0.00 0.00 67 1019.0
20260503210335 10 3.2 0.0 0.00 0.00 0.00 67 1019.0
20260503204842 10 40 4.8 0.0 0.00 0.00 0.00 67 1019.0
20260503203454 10 40 4.8 0.0 0.00 0.00 0.00 67 1019.0
20260503201835 10 10 3.2 0.0 0.00 0.00 0.00 67 1019.0
20260503200345 10 10 3.2 0.0 0.00 0.00 0.00 67 1019.0
20260503194901 12 3.2 0.0 0.00 0.00 0.00 58 1019.0
20260503193455 12 3.2 0.0 0.00 0.00 0.00 58 1019.0
20260503191835 12 3.2 0.0 0.00 0.00 0.00 55 1018.0
20260503190335 12 3.2 0.0 0.00 0.00 0.00 55 1018.0
20260503184954 12 3.2 0.0 0.00 0.00 0.00 59 1018.0
20260503183335 12 3.2 0.0 0.00 0.00 0.00 59 1018.0
20260503181835 15 350 8.0 0.0 0.00 0.00 0.00 51 1018.0
20260503180335 15 350 8.0 0.0 0.00 0.00 0.00 51 1018.0
20260503174855 17 290 4.8 0.0 0.00 0.00 0.00 37 1018.0
20260503173400 17 290 4.8 0.0 0.00 0.00 0.00 37 1018.0
20260503171835 18 280 9.7 0.0 0.00 0.00 0.00 35 1018.0
20260503170336 18 280 9.7 0.0 0.00 0.00 0.00 35 1018.0
20260503150335 21 270 17.7 0.0 0.00 0.00 0.00 31 1018.0
20260503130336 20 240 12.9 0.0 0.00 0.00 0.00 30 1020.0
20260503110356 17 240 9.7 0.0 0.00 0.00 0.00 32 1021.0
20260503090356 16 230 9.7 0.0 0.00 0.00 0.00 36 1023.0
20260503080346 15 4.8 0.0 0.00 0.00 0.00 36 1023.0
20260503071834 13 4.8 0.0 0.00 0.00 0.00 36 1023.0
20260503070336 13 4.8 0.0 0.00 0.00 0.00 36 1023.0
20260503060335 12 90 4.8 0.0 0.00 0.00 0.00 51 1023.0
20260503054835 10 80 9.7 0.0 0.00 0.00 0.00 58 1023.0
20260503053335 10 80 9.7 0.0 0.00 0.00 0.00 58 1023.0
20260503051835 10 60 4.8 0.0 0.00 0.00 0.00 58 1023.0
20260503050335 10 60 4.8 0.0 0.00 0.00 0.00 58 1023.0
20260503044835 8 0 0.0 0.0 0.00 0.00 0.00 62 1023.0
20260503043336 8 0 0.0 0.0 0.00 0.00 0.00 62 1023.0
20260503041835 6 0 0.0 0.0 0.00 0.00 0.00 71 1023.0
20260503040358 6 0 0.0 0.0 0.00 0.00 0.00 71 1023.0
20260503034837 5 0 0.0 0.0 0.00 0.00 0.00 76 1023.0
20260503033335 5 0 0.0 0.0 0.00 0.00 0.00 76 1023.0
20260503031835 3 10 1.6 0.0 0.00 0.00 0.00 81 1023.0
20260503030335 3 10 1.6 0.0 0.00 0.00 0.00 81 1023.0
20260503024850 6 350 4.8 0.0 0.00 0.00 0.00 71 1023.0
20260503023335 6 350 4.8 0.0 0.00 0.00 0.00 71 1023.0
20260503021835 6 10 8.0 0.0 0.00 0.00 0.00 71 1023.0
20260503020335 6 10 8.0 0.0 0.00 0.00 0.00 71 1023.0
20260503014835 5 30 8.0 0.0 0.00 0.00 0.00 76 1022.0
20260503013335 5 30 8.0 0.0 0.00 0.00 0.00 76 1022.0
20260503011835 5 3.2 0.0 0.00 0.00 0.00 76 1022.0
20260503010335 5 3.2 0.0 0.00 0.00 0.00 76 1022.0
20260503004835 6 70 8.0 0.0 0.00 0.00 0.00 66 1022.0
20260503003335 6 70 8.0 0.0 0.00 0.00 0.00 66 1022.0
20260503001835 6 70 4.8 0.0 0.00 0.00 0.00 71 1022.0
20260503000335 6 70 4.8 0.0 0.00 0.00 0.00 71 1022.0
20260502234835 7 80 4.8 0.0 0.00 0.00 0.00 61 1022.0
20260502233335 7 80 4.8 0.0 0.00 0.00 0.00 61 1022.0
20260502231836 7 0 0.0 0.0 0.00 0.00 0.00 62 1022.0
20260502230336 7 0 0.0 0.0 0.00 0.00 0.00 62 1022.0